User: anonymous   Login
Location: Unspecified
(0.0000°N, 0.0000°E)
Time: 04:23:24
(UTC+01:00)
Language:

Meteor 1-10 Rocket - Orbit

View from above orbital plane
View from above orbital plane
View from above satellite
View from above satellite

Ground track
Ground track

The orbit data is extracted from the following two-line orbital elements,

1 05732U 71120B   15026.16835878  .00000210  00000-0  11952-3 0  4739
2 05732 081.2497 246.4101 0050960 338.2924 161.0722 14.05860925216265
Epoch (UTC): 26 January 2015 04:02:26
Eccentricity: 0.0050960
inclination: 81.2497°
perigee height: 836 km
apogee height: 910 km
right ascension of ascending node: 246.4101°
argument of perigee: 338.2924°
revolutions per day: 14.05860925
mean anomaly at epoch: 161.0722°
orbit number at epoch: 21626

The dashed part of the orbit path shows where the satellite is in the earth's shadow,  

DLR